DW2537 Weather Reports


Display with metric or nautical units.
time (UTC)temp
F
wind
direction
speed
MPH
gust
MPH
rain 1hr
in
rain 24hr
in
rain mn
in
humidity
%
barometer
mb
20260905074539 73 0 0.0 2.0 0.00 0.00 0.00 91 1010.6
20260905074019 74 0 0.0 2.0 0.00 0.00 0.00 91 1010.5
20260905073051 74 0 0.0 2.0 0.00 0.00 0.00 91 1010.6
20260905071540 74 0 0.0 3.0 0.00 0.00 0.00 91 1010.7
20260905070053 74 0 0.0 1.0 0.00 0.00 0.00 91 1010.8
20260905064541 74 9 0.0 3.0 0.00 0.00 0.00 91 1011.1
20260905063522 74 0 0.0 3.0 0.00 0.00 0.00 91 1011.2
20260905063047 73 0 0.0 1.0 0.00 0.00 0.00 91 1011.2
20260905061544 74 148 0.0 2.0 0.00 0.00 0.00 92 1011.4
20260905061020 73 0 0.0 2.0 0.00 0.00 0.00 92 1011.3
20260905060519 74 0 0.0 3.0 0.00 0.00 0.00 92 1011.3
20260905060047 74 188 0.0 3.0 0.00 0.00 0.00 92 1011.4
20260905055519 74 0 0.0 1.0 0.00 0.00 0.00 92 1011.3
20260905055019 74 175 0.0 2.0 0.00 0.00 0.00 92 1011.3
20260905054541 74 0 0.0 2.0 0.00 0.00 0.00 93 1011.3
20260905053041 74 0 0.0 2.0 0.00 0.00 0.00 93 1011.7
20260905052020 74 154 0.0 2.0 0.00 0.00 0.00 93 1011.6
20260905051541 74 143 0.0 2.0 0.00 0.00 0.00 93 1011.7
20260905051021 74 279 0.0 2.0 0.00 0.00 0.00 92 1011.8
20260905050518 74 250 0.0 2.0 0.00 0.00 0.00 92 1012.0
20260905050040 74 0 0.0 3.0 0.00 0.00 0.00 92 1012.0
20260905045524 74 0 0.0 3.0 0.00 0.18 0.00 92 1012.1
20260905045021 74 0 0.0 3.0 0.00 0.18 0.00 92 1012.0
20260905044541 74 0 0.0 2.0 0.00 0.18 0.00 92 1012.1
20260905043040 75 0 0.0 3.0 0.00 0.18 0.00 92 1012.1
20260905042020 75 0 1.0 4.0 0.00 0.18 0.00 92 1012.0
20260905041539 75 185 1.0 4.0 0.00 0.18 0.00 93 1012.1
20260905041021 75 143 0.0 2.0 0.00 0.18 0.00 93 1012.1
20260905040519 75 186 0.0 1.0 0.00 0.18 0.00 93 1012.0
20260905040042 75 0 0.0 1.0 0.00 0.18 0.00 93 1012.0
20260905034539 75 0 0.0 1.0 0.00 0.18 0.18 92 1012.2
20260905033520 76 0 0.0 1.0 0.00 0.18 0.18 92 1012.4
20260905033038 76 0 0.0 1.0 0.00 0.18 0.18 92 1012.3
20260905032518 76 0 0.0 1.0 0.00 0.18 0.18 92 1012.3
20260905032021 76 0 0.0 1.0 0.00 0.18 0.18 92 1012.3
20260905031547 76 178 0.0 1.0 0.00 0.18 0.18 92 1012.3
20260905030039 76 0 0.0 2.0 0.00 0.18 0.18 92 1012.3
20260905024541 76 173 0.0 2.0 0.00 0.18 0.18 91 1012.3
20260905023040 77 208 0.0 2.0 0.00 0.18 0.18 92 1012.4
20260905021545 77 0 0.0 2.0 0.00 0.18 0.18 91 1012.1
20260905020041 77 0 0.0 1.0 0.00 0.18 0.18 91 1011.9
20260905015018 77 0 0.0 2.0 0.00 0.18 0.18 90 1012.0
20260905014540 77 0 0.0 2.0 0.00 0.18 0.18 90 1012.1
20260905013040 78 0 0.0 1.0 0.00 0.18 0.18 89 1011.9
20260905011548 78 0 0.0 2.0 0.00 0.18 0.18 88 1011.5
20260905010104 78 0 0.0 2.0 0.00 0.18 0.18 87 1011.3
20260905004546 79 0 0.0 1.0 0.00 0.18 0.18 86 1011.3
20260905003042 79 180 0.0 1.0 0.00 0.18 0.18 84 1011.5
20260905001547 79 0 0.0 2.0 0.00 0.18 0.18 82 1011.3
20260905001018 80 0 0.0 2.0 0.00 0.18 0.18 82 1011.3
20260905000055 80 180 0.0 2.0 0.00 0.18 0.18 81 1011.2
20260904235018 80 180 0.0 1.0 0.00 0.18 0.18 81 1011.3
20260904234540 80 0 0.0 1.0 0.00 0.18 0.18 80 1011.4
20260904234021 80 0 0.0 0.0 0.00 0.18 0.18 80 1011.4
20260904233520 81 0 0.0 0.0 0.00 0.18 0.18 80 1011.4
20260904233044 81 0 0.0 0.0 0.00 0.18 0.18 80 1011.3
20260904232522 81 0 0.0 2.0 0.00 0.18 0.18 80 1011.2
20260904232023 81 0 0.0 2.0 0.00 0.18 0.18 79 1011.4
20260904231547 81 0 0.0 2.0 0.00 0.18 0.18 77 1011.4
20260904230058 82 0 0.0 1.0 0.00 0.18 0.18 77 1011.5
20260904225019 82 0 0.0 1.0 0.00 0.18 0.18 77 1011.5
20260904224541 82 0 0.0 1.0 0.00 0.18 0.18 77 1011.4
20260904224020 83 0 0.0 1.0 0.00 0.18 0.18 76 1011.3
20260904223520 83 180 0.0 1.0 0.00 0.18 0.18 76 1011.3
20260904223049 83 0 0.0 1.0 0.00 0.18 0.18 76 1011.4
20260904222521 83 0 0.0 1.0 0.00 0.18 0.18 76 1011.4
20260904222019 83 0 0.0 1.0 0.00 0.18 0.18 76 1011.5
20260904221538 83 0 0.0 0.0 0.00 0.18 0.18 76 1011.6
20260904221020 83 0 0.0 1.0 0.00 0.18 0.18 75 1011.8
20260904220049 83 0 0.0 3.0 0.00 0.18 0.18 75 1011.9
20260904214540 83 0 0.0 2.0 0.00 0.18 0.18 75 1012.1
20260904214020 83 0 0.0 2.0 0.00 0.18 0.18 73 1012.1
20260904213519 84 0 0.0 2.0 0.00 0.18 0.18 74 1012.1
20260904213043 84 0 0.0 2.0 0.00 0.18 0.18 74 1012.1
20260904211544 85 164 0.0 4.0 0.00 0.18 0.18 70 1012.1
20260904210519 85 160 1.0 4.0 0.00 0.18 0.18 70 1012.3
20260904210046 85 186 0.0 2.0 0.00 0.18 0.18 69 1012.2
20260904205520 86 0 0.0 4.0 0.00 0.18 0.18 70 1012.1
20260904205019 86 0 0.0 4.0 0.00 0.18 0.18 69 1012.4
20260904204538 86 125 0.0 4.0 0.00 0.18 0.18 68 1012.5
20260904203038 87 0 1.0 4.0 0.00 0.18 0.18 66 1012.6
20260904202533 87 0 1.0 8.0 0.00 0.18 0.18 65 1012.7
20260904201549 88 43 1.0 8.0 0.00 0.18 0.18 65 1012.7
20260904200521 88 288 1.0 5.0 0.00 0.18 0.18 62 1012.4
20260904200051 89 252 1.0 5.0 0.00 0.18 0.18 65 1012.2
20260904195528 89 36 1.0 5.0 0.00 0.18 0.18 61 1012.1
20260904195019 89 0 2.0 4.0 0.00 0.18 0.18 63 1012.0
20260904194546 89 75 1.0 6.0 0.00 0.18 0.18 58 1012.4
20260904194021 89 250 1.0 6.0 0.00 0.18 0.18 61 1012.5
20260904193041 90 0 1.0 4.0 0.00 0.18 0.18 65 1012.4
20260904191540 90 240 0.0 4.0 0.00 0.18 0.18 62 1012.4
20260904190038 91 0 1.0 9.0 0.00 0.18 0.18 63 1012.7
20260904185521 91 117 2.0 9.0 0.00 0.18 0.18 57 1012.8
20260904185020 91 236 2.0 5.0 0.00 0.18 0.18 58 1012.9
20260904184602 91 274 1.0 8.0 0.00 0.18 0.18 58 1013.0
20260904184019 91 144 1.0 9.0 0.00 0.18 0.18 57 1013.0
20260904183519 91 153 2.0 9.0 0.00 0.18 0.18 58 1013.0
20260904183042 90 263 2.0 6.0 0.00 0.18 0.18 59 1013.2
20260904181539 90 155 1.0 10.0 0.00 0.18 0.18 60 1013.1
20260904181022 90 291 2.0 10.0 0.00 0.18 0.18 60 1013.1
20260904180519 90 167 1.0 4.0 0.00 0.18 0.18 62 1013.1
20260904180039 90 12 0.0 6.0 0.00 0.18 0.18 60 1013.1
20260904175521 90 0 1.0 6.0 0.00 0.18 0.18 65 1013.1
20260904174609 89 273 1.0 7.0 0.00 0.18 0.18 61 1013.1
20260904173046 89 280 1.0 7.0 0.00 0.18 0.18 63 1013.2
20260904171539 88 198 1.0 6.0 0.00 0.18 0.18 64 1013.3
20260904171018 88 279 1.0 6.0 0.00 0.18 0.18 69 1013.4
20260904170521 87 146 2.0 6.0 0.00 0.18 0.18 65 1013.4
20260904170046 87 215 1.0 7.0 0.00 0.18 0.18 64 1013.5
20260904165520 87 281 1.0 7.0 0.00 0.18 0.18 68 1013.5
20260904165020 87 201 1.0 10.0 0.00 0.18 0.18 63 1013.6
20260904164539 87 279 1.0 10.0 0.00 0.18 0.18 68 1013.7
20260904163050 86 5 1.0 6.0 0.00 0.18 0.18 68 1013.9
20260904161538 85 224 1.0 5.0 0.00 0.18 0.18 69 1014.1
20260904160521 85 0 0.0 6.0 0.00 0.18 0.18 69 1014.2
20260904160039 85 275 2.0 6.0 0.00 0.18 0.18 68 1014.2
20260904155520 85 39 2.0 8.0 0.00 0.18 0.18 71 1014.1
20260904155021 85 154 2.0 8.0 0.00 0.18 0.18 73 1014.2
20260904154541 84 184 1.0 7.0 0.00 0.18 0.18 69 1014.2
20260904153041 84 188 1.0 7.0 0.00 0.18 0.18 75 1014.4
20260904152523 84 301 0.0 7.0 0.00 0.18 0.18 75 1014.3
20260904152020 83 216 1.0 6.0 0.00 0.18 0.18 71 1014.3
20260904151539 83 286 1.0 5.0 0.00 0.18 0.18 74 1014.4
20260904151020 83 285 0.0 8.0 0.00 0.18 0.18 70 1014.4
20260904150521 83 77 0.0 8.0 0.00 0.18 0.18 76 1014.4
20260904150045 82 0 1.0 7.0 0.00 0.18 0.18 74 1014.4
20260904144542 81 0 1.0 4.0 0.00 0.18 0.18 80 1014.6
20260904143038 80 49 0.0 6.0 0.00 0.18 0.18 82 1014.7
20260904142520 80 261 0.0 6.0 0.00 0.18 0.18 81 1014.6
20260904142020 79 25 1.0 6.0 0.00 0.18 0.18 81 1014.4
20260904141539 79 126 1.0 4.0 0.00 0.18 0.18 80 1014.3
20260904140041 78 9 0.0 7.0 0.00 0.18 0.18 79 1014.3
20260904134553 77 232 1.0 4.0 0.00 0.18 0.18 89 1014.3
20260904134021 77 42 0.0 3.0 0.00 0.18 0.18 89 1014.4
20260904133051 76 145 0.0 4.0 0.00 0.18 0.18 89 1014.4
20260904131546 75 211 0.0 5.0 0.00 0.18 0.18 94 1014.3
20260904130045 74 119 0.0 2.0 0.00 0.18 0.18 96 1014.2
20260904124547 73 277 0.0 3.0 0.00 0.18 0.18 96 1014.3
20260904123047 72 0 0.0 3.0 0.00 0.18 0.18 97 1014.3
20260904121546 72 230 0.0 2.0 0.00 0.18 0.18 97 1014.4
20260904120046 72 144 0.0 3.0 0.00 0.18 0.18 97 1014.2
20260904114539 71 0 0.0 2.0 0.00 0.19 0.18 97 1014.3
20260904113518 71 162 0.0 3.0 0.00 0.19 0.18 97 1014.1
20260904113048 71 0 0.0 3.0 0.00 0.19 0.18 97 1014.2
20260904111546 71 0 0.0 3.0 0.00 0.19 0.18 97 1014.2
20260904110618 71 194 0.0 2.0 0.00 0.19 0.18 97 1013.9
20260904110041 71 157 0.0 2.0 0.00 0.19 0.18 97 1013.9
20260904104539 71 178 0.0 1.0 0.00 0.19 0.18 97 1013.9
20260904104024 71 0 0.0 2.0 0.00 0.19 0.18 97 1013.8
20260904103520 71 0 0.0 3.0 0.00 0.19 0.18 97 1013.7
20260904103038 71 0 0.0 3.0 0.00 0.19 0.18 97 1013.6
20260904102521 71 166 0.0 3.0 0.00 0.19 0.18 97 1013.7
20260904101541 71 0 0.0 2.0 0.00 0.19 0.18 97 1013.6
20260904100043 71 0 0.0 2.0 0.00 0.19 0.18 97 1013.7
20260904094539 71 0 0.0 2.0 0.00 0.19 0.18 97 1013.8
20260904094020 71 0 0.0 2.0 0.00 0.19 0.18 97 1013.7
20260904093519 71 0 0.0 1.0 0.00 0.19 0.18 97 1013.7
20260904093055 71 0 0.0 1.0 0.00 0.19 0.18 97 1013.5
20260904092519 71 0 0.0 1.0 0.00 0.19 0.18 97 1013.2
20260904091541 71 0 0.0 1.0 0.00 0.19 0.18 97 1013.1
20260904090042 70 0 0.0 2.0 0.00 0.19 0.18 96 1013.0
20260904085019 70 0 0.0 1.0 0.00 0.19 0.18 96 1013.1
20260904084539 71 0 0.0 1.0 0.00 0.19 0.18 96 1013.0
20260904084021 71 0 0.0 1.0 0.00 0.19 0.18 96 1013.0
20260904083518 71 0 0.0 2.0 0.00 0.19 0.18 96 1013.1
20260904083040 71 0 0.0 2.0 0.00 0.19 0.18 96 1013.3
20260904081540 71 0 0.0 1.0 0.00 0.19 0.18 96 1013.3
20260904081022 71 0 0.0 1.0 0.00 0.19 0.18 96 1013.3
20260904080518 71 0 0.0 2.0 0.00 0.19 0.18 96 1013.4
20260904080038 71 0 0.0 2.0 0.00 0.19 0.18 96 1013.4